| time (UTC) | temp F | wind direction | speed knots | gust knots | rain 1hr in | rain 24hr in | rain mn in | humidity % | barometer mb |
| 20260504050517 | 64 | 358 | 7.0 | 17.4 | 0.00 | 0.00 | 0.00 | 20 | 1011.4 |
| 20260504045530 | 64 | 8 | 4.3 | 21.7 | 0.00 | 0.00 | 0.00 | 20 | 1011.4 |
| 20260504044522 | 64 | 4 | 4.3 | 10.4 | 0.00 | 0.00 | 0.00 | 22 | 1011.4 |
| 20260504043549 | 64 | 8 | 6.1 | 14.8 | 0.00 | 0.00 | 0.00 | 22 | 1011.4 |
| 20260504042521 | 64 | 12 | 4.3 | 13.0 | 0.00 | 0.00 | 0.00 | 22 | 1011.4 |
| 20260504041529 | 64 | 13 | 4.3 | 10.4 | 0.00 | 0.00 | 0.00 | 21 | 1011.5 |
| 20260504040523 | 64 | 10 | 4.3 | 14.8 | 0.00 | 0.00 | 0.00 | 20 | 1011.4 |
| 20260504035530 | 64 | 5 | 3.5 | 14.8 | 0.00 | 0.00 | 0.00 | 19 | 1011.5 |
| 20260504034522 | 65 | 6 | 4.3 | 13.0 | 0.00 | 0.00 | 0.00 | 22 | 1011.5 |
| 20260504033529 | 66 | 353 | 1.7 | 10.4 | 0.00 | 0.00 | 0.00 | 22 | 1011.6 |
| 20260504032521 | 66 | 355 | 4.3 | 17.4 | 0.00 | 0.00 | 0.00 | 22 | 1011.6 |
| 20260504031517 | 65 | 340 | 1.7 | 13.0 | 0.00 | 0.00 | 0.00 | 21 | 1011.7 |
| 20260504030541 | 65 | 21 | 4.3 | 14.8 | 0.00 | 0.00 | 0.00 | 22 | 1011.7 |
| 20260504025529 | 65 | 3 | 2.6 | 13.0 | 0.00 | 0.00 | 0.00 | 22 | 1011.9 |
| 20260504024622 | 64 | 21 | 3.5 | 14.8 | 0.00 | 0.00 | 0.00 | 22 | 1011.8 |
| 20260504023529 | 64 | 1 | 4.3 | 14.8 | 0.00 | 0.00 | 0.00 | 22 | 1012.1 |
| 20260504022521 | 64 | 5 | 4.3 | 13.0 | 0.00 | 0.00 | 0.00 | 20 | 1012.2 |
| 20260504021529 | 64 | 3 | 6.1 | 17.4 | 0.00 | 0.00 | 0.00 | 20 | 1012.4 |
| 20260504020523 | 64 | 311 | 1.7 | 10.4 | 0.00 | 0.00 | 0.00 | 22 | 1012.4 |
| 20260504015550 | 63 | 25 | 1.7 | 10.4 | 0.00 | 0.00 | 0.00 | 23 | 1012.4 |
| 20260504014521 | 63 | 359 | 6.1 | 13.0 | 0.00 | 0.00 | 0.00 | 21 | 1012.7 |
| 20260504013530 | 63 | 1 | 4.3 | 19.1 | 0.00 | 0.00 | 0.00 | 22 | 1012.5 |
| 20260504012521 | 62 | 1 | 5.2 | 17.4 | 0.00 | 0.00 | 0.00 | 22 | 1012.7 |
| 20260504011529 | 62 | 36 | 3.5 | 13.0 | 0.00 | 0.00 | 0.00 | 23 | 1012.8 |
| 20260504010608 | 63 | 6 | 4.3 | 14.8 | 0.00 | 0.00 | 0.00 | 25 | 1012.8 |
| 20260504005529 | 63 | 8 | 6.1 | 17.4 | 0.00 | 0.00 | 0.00 | 24 | 1012.9 |
| 20260504004520 | 62 | 16 | 5.2 | 13.0 | 0.00 | 0.00 | 0.00 | 25 | 1012.9 |
| 20260504003529 | 62 | 353 | 3.5 | 14.8 | 0.00 | 0.00 | 0.00 | 25 | 1012.7 |
| 20260504002521 | 62 | 22 | 7.0 | 17.4 | 0.00 | 0.00 | 0.00 | 26 | 1012.8 |
| 20260504001530 | 62 | 3 | 3.5 | 19.1 | 0.00 | 0.00 | 0.00 | 26 | 1012.9 |
| 20260504000541 | 62 | 3 | 1.7 | 17.4 | 0.00 | 0.00 | 0.00 | 27 | 1012.9 |
| 20260503235529 | 61 | 24 | 0.9 | 10.4 | 0.00 | 0.00 | 0.00 | 29 | 1013.1 |
| 20260503234521 | 61 | 360 | 2.6 | 13.0 | 0.00 | 0.00 | 0.00 | 29 | 1013.1 |
| 20260503233529 | 61 | 6 | 5.2 | 14.8 | 0.00 | 0.00 | 0.00 | 29 | 1013.2 |
| 20260503232520 | 61 | 3 | 0.9 | 10.4 | 0.00 | 0.00 | 0.00 | 29 | 1013.2 |
| 20260503231529 | 60 | 13 | 4.3 | 14.8 | 0.00 | 0.00 | 0.00 | 29 | 1013.1 |
| 20260503230521 | 60 | 1 | 5.2 | 13.0 | 0.00 | 0.00 | 0.00 | 29 | 1013.3 |
| 20260503225529 | 59 | 358 | 1.7 | 6.1 | 0.00 | 0.00 | 0.00 | 30 | 1013.3 |
| 20260503224521 | 58 | 11 | 3.5 | 10.4 | 0.00 | 0.00 | 0.00 | 31 | 1013.2 |
| 20260503223528 | 57 | 360 | 1.7 | 8.7 | 0.00 | 0.00 | 0.00 | 32 | 1013.1 |
| 20260503222521 | 56 | 19 | 1.7 | 6.1 | 0.00 | 0.00 | 0.00 | 34 | 1013.0 |
| 20260503221522 | 55 | 34 | 1.7 | 6.1 | 0.00 | 0.00 | 0.00 | 36 | 1013.2 |
| 20260503220521 | 55 | 17 | 0.9 | 8.7 | 0.00 | 0.00 | 0.00 | 36 | 1013.3 |
| 20260503215526 | 55 | 18 | 1.7 | 6.1 | 0.00 | 0.00 | 0.00 | 36 | 1013.2 |
| 20260503214520 | 55 | 18 | 0.9 | 4.3 | 0.00 | 0.00 | 0.00 | 37 | 1013.1 |
| 20260503213529 | 55 | 16 | 0.9 | 4.3 | 0.00 | 0.00 | 0.00 | 37 | 1013.2 |
| 20260503212521 | 55 | 31 | 2.6 | 8.7 | 0.00 | 0.00 | 0.00 | 38 | 1013.0 |
| 20260503211529 | 55 | 25 | 1.7 | 4.3 | 0.00 | 0.00 | 0.00 | 38 | 1013.0 |
| 20260503210541 | 55 | 28 | 1.7 | 6.1 | 0.00 | 0.00 | 0.00 | 38 | 1013.1 |
| 20260503205525 | 55 | 21 | 0.9 | 6.1 | 0.00 | 0.00 | 0.00 | 38 | 1013.1 |
| 20260503204521 | 54 | 18 | 1.7 | 6.1 | 0.00 | 0.00 | 0.00 | 39 | 1013.0 |
| 20260503203549 | 54 | 19 | 1.7 | 8.7 | 0.00 | 0.00 | 0.00 | 40 | 1012.8 |
| 20260503202520 | 54 | 27 | 1.7 | 6.1 | 0.00 | 0.00 | 0.00 | 42 | 1012.8 |
| 20260503201528 | 54 | 14 | 0.9 | 4.3 | 0.00 | 0.00 | 0.00 | 45 | 1012.8 |
| 20260503200521 | 54 | 0.0 | 0.0 | 0.00 | 0.00 | 0.00 | 49 | 1012.8 | |
| 20260503195528 | 53 | 15 | 0.9 | 4.3 | 0.00 | 0.00 | 0.00 | 51 | 1012.8 |
| 20260503194539 | 53 | 350 | 0.0 | 4.3 | 0.00 | 0.00 | 0.00 | 54 | 1012.9 |
| 20260503193528 | 53 | 34 | 0.9 | 6.1 | 0.00 | 0.00 | 0.00 | 60 | 1012.8 |
| 20260503192521 | 52 | 33 | 0.0 | 1.7 | 0.00 | 0.00 | 0.00 | 72 | 1012.9 |
| 20260503191529 | 52 | 360 | 0.9 | 4.3 | 0.00 | 0.00 | 0.00 | 77 | 1013.0 |
| 20260503190520 | 51 | 41 | 0.0 | 4.3 | 0.00 | 0.00 | 0.00 | 79 | 1012.9 |
| 20260503185549 | 51 | 0.0 | 0.0 | 0.00 | 0.00 | 0.00 | 79 | 1013.3 | |
| 20260503184546 | 51 | 0.0 | 0.0 | 0.00 | 0.00 | 0.00 | 80 | 1013.2 | |
| 20260503183530 | 50 | 0.0 | 0.0 | 0.00 | 0.00 | 0.00 | 77 | 1013.3 | |
| 20260503182520 | 50 | 0.0 | 0.0 | 0.00 | 0.00 | 0.00 | 77 | 1013.3 | |
| 20260503181529 | 50 | 0.0 | 0.0 | 0.00 | 0.00 | 0.00 | 79 | 1013.4 | |
| 20260503180520 | 50 | 0.0 | 0.0 | 0.00 | 0.00 | 0.00 | 77 | 1013.4 | |
| 20260503175529 | 50 | 0.0 | 0.0 | 0.00 | 0.00 | 0.00 | 72 | 1013.6 | |
| 20260503174521 | 51 | 0.0 | 0.0 | 0.00 | 0.00 | 0.00 | 71 | 1013.6 | |
| 20260503173529 | 51 | 0.0 | 0.0 | 0.00 | 0.00 | 0.00 | 70 | 1013.7 | |
| 20260503172520 | 51 | 0.0 | 0.0 | 0.00 | 0.00 | 0.00 | 64 | 1013.7 | |
| 20260503171522 | 52 | 0.0 | 0.0 | 0.00 | 0.00 | 0.00 | 57 | 1013.7 | |
| 20260503170522 | 52 | 0.0 | 0.0 | 0.00 | 0.00 | 0.00 | 51 | 1013.6 | |
| 20260503150601 | 53 | 2 | 0.9 | 4.3 | 0.00 | 0.00 | 0.00 | 49 | 1014.0 |
| 20260503130520 | 55 | 0.0 | 0.0 | 0.00 | 0.00 | 0.00 | 43 | 1014.5 | |
| 20260503110517 | 56 | 0.0 | 0.0 | 0.00 | 0.00 | 0.00 | 38 | 1014.4 | |
| 20260503081518 | 58 | 0.0 | 0.0 | 0.00 | 0.00 | 0.00 | 37 | 1012.9 | |
| 20260503080519 | 58 | 355 | 0.9 | 6.1 | 0.00 | 0.00 | 0.00 | 39 | 1012.8 |
| 20260503072519 | 61 | 356 | 0.0 | 1.7 | 0.00 | 0.00 | 0.00 | 39 | 1012.7 |
| 20260503071547 | 62 | 31 | 0.9 | 4.3 | 0.00 | 0.00 | 0.00 | 39 | 1012.7 |
| 20260503070527 | 62 | 30 | 0.0 | 4.3 | 0.00 | 0.00 | 0.00 | 40 | 1012.5 |
| 20260503054517 | 61 | 339 | 0.0 | 4.3 | 0.00 | 0.00 | 0.00 | 51 | 1012.1 |
| 20260503053608 | 62 | 321 | 0.0 | 1.7 | 0.00 | 0.00 | 0.00 | 50 | 1012.1 |
| 20260503052559 | 63 | 275 | 0.9 | 1.7 | 0.00 | 0.00 | 0.00 | 49 | 1012.2 |